TimeMST,TemperatureF,Dew PointF,Humidity,Sea Level PressureIn,VisibilityMPH,Wind Direction,Wind SpeedMPH,Gust SpeedMPH,PrecipitationIn,Events,Conditions,WindDirDegrees,DateUTC
12:53 AM,30.9,19.9,64,30.11,10.0,SW,16.1,-,N/A,,Clear,220,2013-01-09 07:53:00
1:53 AM,30.9,19.9,64,30.12,10.0,SW,17.3,-,N/A,,Clear,220,2013-01-09 08:53:00
2:53 AM,28.0,19.0,69,30.15,10.0,SW,10.4,-,N/A,,Clear,220,2013-01-09 09:53:00
3:53 AM,30.0,19.9,66,30.12,10.0,SW,3.5,-,N/A,,Clear,220,2013-01-09 10:53:00
5:53 AM,30.0,19.9,66,30.11,10.0,SW,8.1,17.3,N/A,,Clear,230,2013-01-09 12:53:00
6:53 AM,27.0,19.0,72,30.12,10.0,Calm,Calm,-,N/A,,Clear,0,2013-01-09 13:53:00
7:53 AM,27.0,19.0,72,30.12,10.0,West,8.1,-,N/A,,Clear,260,2013-01-09 14:53:00
8:53 AM,26.1,19.0,75,30.12,10.0,North,4.6,-,N/A,,Clear,10,2013-01-09 15:53:00
9:53 AM,35.1,21.9,59,30.04,10.0,Variable,4.6,-,N/A,,Clear,0,2013-01-09 16:53:00
11:53 AM,43.0,24.1,47,29.94,10.0,South,13.8,21.9,N/A,,Clear,180,2013-01-09 18:53:00
12:53 PM,42.1,25.0,51,29.88,10.0,South,23.0,28.8,N/A,,Clear,190,2013-01-09 19:53:00
1:53 PM,42.1,25.0,51,29.84,9.0,South,24.2,34.5,N/A,,Clear,190,2013-01-09 20:53:00
3:53 PM,39.9,24.1,53,29.82,10.0,South,23.0,32.2,N/A,,Clear,190,2013-01-09 22:53:00
4:53 PM,39.9,23.0,51,29.79,10.0,South,21.9,34.5,N/A,,Clear,180,2013-01-09 23:53:00
5:53 PM,39.0,23.0,53,29.78,10.0,South,20.7,36.8,N/A,,Clear,180,2013-01-10 00:53:00
6:53 PM,39.0,23.0,53,29.79,10.0,South,16.1,28.8,N/A,,Clear,180,2013-01-10 01:53:00
7:53 PM,36.0,23.0,59,29.79,10.0,SSW,12.7,-,N/A,,Clear,210,2013-01-10 02:53:00
8:53 PM,37.9,21.9,53,29.76,10.0,SSW,17.3,24.2,N/A,,Clear,210,2013-01-10 03:53:00
9:53 PM,37.0,21.9,54,29.70,10.0,SSW,11.5,-,N/A,,Clear,210,2013-01-10 04:53:00
10:53 PM,37.0,21.9,54,29.66,10.0,SSW,13.8,-,N/A,,Clear,210,2013-01-10 05:53:00
11:53 PM,37.9,21.0,51,29.59,10.0,South,10.4,-,N/A,,Partly Cloudy,180,2013-01-10 06:53:00